Date String (YYYY-MM-DD hh:mm:ss) UTC,Instrument flags,Ambient pressure (hPa),Sample flow (lpm),Bypass flow (lpm),Sample temperature (°C),Ambient temperature (°C),ASC tube jacket temperature (°C),LED temperature (°C),Box temperature (°C),Sample RH (%),Span deviation,Mass concentration (μg/m³),Mass concentration (μg/m³),Mass concentration (μg/m³)
DateTimeUTC,F1_M11,P_M11,Q1_M11,Q2_M11,T1_M11,T2_M11,T3_M11,T4_M11,T5_M11,U1_M11,ZSPAN_M11,X0_M11,X2_M11,X1_M11
2023-01-22 02:00:00,,0823.9,5.00,0.00,21.2,19.8,00.0,29.9,22.8,13.3,0000.6,0011.57,0007.93,0007.69
2023-01-22 02:01:00,,0823.9,4.99,0.00,21.2,19.5,00.0,29.9,22.7,13.3,0001.0,0011.84,0007.96,0007.73
2023-01-22 02:02:00,,0823.9,4.99,0.00,21.1,19.3,00.0,29.9,22.6,13.4,0000.9,0011.60,0008.00,0007.77
2023-01-22 02:03:00,,0823.9,4.99,0.00,21.1,19.1,00.0,29.9,22.5,13.4,0000.5,0011.40,0008.03,0007.78
2023-01-22 02:04:00,,0824.0,5.00,0.00,21.0,19.0,00.0,29.9,22.5,13.3,0000.1,0011.46,0008.01,0007.74
2023-01-22 02:05:00,,0824.0,4.99,0.00,21.0,18.8,00.0,29.9,22.4,13.3,0000.1,0011.41,0007.97,0007.69
2023-01-22 02:06:00,,0823.9,4.98,0.00,20.9,18.7,00.0,29.8,22.3,13.3,0000.3,0011.28,0007.90,0007.63
2023-01-22 02:07:00,,0823.8,5.00,0.00,20.9,19.2,00.0,29.8,22.4,13.2,0000.1,0011.22,0007.83,0007.55
2023-01-22 02:08:00,,0823.9,4.99,0.00,21.0,20.6,00.0,29.8,22.7,13.1,0000.0,0010.91,0007.76,0007.48
2023-01-22 02:09:00,,0823.9,5.00,0.00,21.1,21.8,00.0,29.8,23.0,13.1,0000.7,0010.99,0007.71,0007.43
2023-01-22 02:10:00,,0823.9,4.97,0.00,21.2,21.6,00.0,29.8,23.1,13.0,0001.1,0011.00,0007.68,0007.40
2023-01-22 02:11:00,,0823.8,5.01,0.00,21.2,20.9,00.0,29.9,23.0,13.0,0001.2,0010.86,0007.65,0007.38
2023-01-22 02:12:00,,0823.8,5.01,0.00,21.2,20.3,00.0,29.9,22.9,13.0,0000.4,0010.43,0007.63,0007.36
2023-01-22 02:13:00,,0823.8,5.00,0.00,21.2,19.8,00.0,29.9,22.7,13.0,-000.1,0010.42,0007.61,0007.33
2023-01-22 02:14:00,,0823.8,4.99,0.00,21.1,19.5,00.0,29.9,22.6,13.0,0000.0,0010.43,0007.58,0007.29
2023-01-22 02:15:00,,0823.8,5.03,0.00,21.1,19.3,00.0,29.9,22.5,12.9,-000.2,0010.35,0007.55,0007.28
2023-01-22 02:16:00,,0823.8,5.00,0.00,21.0,19.1,00.0,29.9,22.5,13.0,-000.1,0010.43,0007.61,0007.32
2023-01-22 02:17:00,,0823.8,5.00,0.00,21.0,19.1,00.0,29.9,22.5,13.1,-000.2,0010.56,0007.69,0007.35
2023-01-22 02:18:00,,0823.7,4.99,0.00,21.0,19.0,00.0,29.8,22.5,13.1,-000.1,0010.81,0007.71,0007.37
2023-01-22 02:19:00,,0823.7,5.00,0.00,21.0,19.4,00.0,29.8,22.5,13.1,0000.1,0011.05,0007.76,0007.41
2023-01-22 02:20:00,,0823.7,5.00,0.00,21.1,20.8,00.0,29.8,22.8,13.1,-000.3,0010.96,0007.79,0007.44
2023-01-22 02:21:00,,0823.7,5.00,0.00,21.2,21.9,00.0,29.8,23.1,13.0,-000.1,0010.97,0007.80,0007.44
2023-01-22 02:22:00,,0823.7,5.00,0.00,21.3,21.4,00.0,29.9,23.1,13.0,-000.2,0011.05,0007.85,0007.46
2023-01-22 02:23:00,,0823.7,5.02,0.00,21.3,20.9,00.0,29.9,23.0,13.0,0000.2,0011.06,0007.86,0007.48
2023-01-22 02:24:00,,0823.7,5.02,0.00,21.3,20.4,00.0,29.9,22.9,13.0,0000.5,0011.21,0007.87,0007.49
2023-01-22 02:25:00,,0823.7,5.01,0.00,21.2,20.0,00.0,29.9,22.9,13.1,0000.9,0011.44,0007.88,0007.50
2023-01-22 02:26:00,,0823.7,5.00,0.00,21.2,19.7,00.0,29.9,22.8,13.1,0000.4,0011.55,0007.93,0007.54
2023-01-22 02:27:00,,0823.7,5.00,0.00,21.2,19.5,00.0,29.9,22.7,13.2,0000.3,0011.51,0007.92,0007.55
2023-01-22 02:28:00,,0823.7,5.00,0.00,21.1,19.4,00.0,29.9,22.7,13.2,0000.2,0011.54,0007.91,0007.56
2023-01-22 02:29:00,,0823.7,5.01,0.00,21.1,19.2,00.0,29.9,22.7,13.2,0000.2,0011.54,0007.95,0007.58
2023-01-22 02:30:00,,0823.7,4.99,0.00,21.1,19.2,00.0,29.9,22.6,13.3,-000.1,0011.24,0007.96,0007.59
2023-01-22 02:31:00,,0823.7,4.99,0.00,21.1,19.1,00.0,29.9,22.6,13.3,0000.1,0011.17,0007.94,0007.59
2023-01-22 02:32:00,,0823.7,5.00,0.00,21.0,19.6,00.0,29.9,22.6,13.3,-000.4,0011.14,0007.94,0007.60
2023-01-22 02:33:00,,0823.7,5.01,0.00,21.1,21.0,00.0,29.9,22.9,13.3,-000.4,0011.09,0007.91,0007.59
2023-01-22 02:34:00,,0823.7,5.00,0.00,21.3,22.1,00.0,29.9,23.2,13.2,-001.2,0011.17,0007.91,0007.56
2023-01-22 02:35:00,,0823.7,5.00,0.00,21.4,22.2,00.0,30.0,23.4,13.1,-001.5,0011.09,0007.86,0007.50
2023-01-22 02:36:00,,0823.7,5.00,0.00,21.4,21.6,00.0,30.0,23.3,13.0,-002.0,0011.25,0007.81,0007.47
2023-01-22 02:37:00,,0823.6,5.01,0.00,21.4,21.1,00.0,30.0,23.2,13.0,-001.6,0011.39,0007.76,0007.43
2023-01-22 02:38:00,,0823.7,5.01,0.00,21.4,20.7,00.0,30.1,23.2,13.0,-001.4,0011.47,0007.75,0007.38
2023-01-22 02:39:00,,0823.6,4.98,0.00,21.4,20.3,00.0,30.1,23.1,13.0,-001.4,0011.29,0007.67,0007.33
2023-01-22 02:40:00,,0823.6,5.00,0.00,21.4,20.0,00.0,30.1,23.0,13.0,-001.2,0011.12,0007.57,0007.26
2023-01-22 02:41:00,,0823.5,4.99,0.00,21.4,19.8,00.0,30.1,23.0,13.0,-001.1,0011.05,0007.53,0007.23
2023-01-22 02:42:00,,0823.5,5.00,0.00,21.3,19.6,00.0,30.1,22.9,13.0,-000.2,0011.06,0007.49,0007.18
2023-01-22 02:43:00,,0823.4,5.00,0.00,21.3,19.4,00.0,30.1,22.8,13.0,-000.1,0010.96,0007.41,0007.11
2023-01-22 02:44:00,,0823.4,5.03,0.00,21.2,19.2,00.0,30.1,22.7,13.1,0000.0,0010.87,0007.35,0007.05
2023-01-22 02:45:00,,0823.3,5.00,0.00,21.2,18.9,00.0,30.1,22.6,13.1,0000.0,0010.71,0007.29,0007.01
2023-01-22 02:46:00,,0823.3,5.00,0.00,21.1,18.8,00.0,30.0,22.5,13.1,0000.0,0010.62,0007.26,0006.99
2023-01-22 02:47:00,,0823.3,5.02,0.00,21.1,19.3,00.0,30.0,22.6,13.1,0000.0,0010.16,0007.24,0006.98
2023-01-22 02:48:00,,0823.3,5.00,0.00,21.2,20.8,00.0,30.0,22.9,13.1,0000.0,0009.78,0007.23,0006.97
2023-01-22 02:49:00,,0823.4,5.00,0.00,21.3,21.9,00.0,30.0,23.2,13.0,0000.0,0009.72,0007.21,0006.96
2023-01-22 02:50:00,,0823.3,5.00,0.00,21.4,21.8,00.0,30.0,23.3,12.8,0000.0,0009.80,0007.23,0006.94
2023-01-22 02:51:00,,0823.4,4.98,0.00,21.4,21.2,00.0,30.1,23.1,12.6,0001.3,0009.85,0007.23,0006.93
2023-01-22 02:52:00,,0823.4,5.01,0.00,21.4,20.6,00.0,30.1,23.0,12.8,0002.2,0009.95,0007.24,0006.91
2023-01-22 02:53:00,,0823.3,5.00,0.00,21.3,20.1,00.0,30.1,23.0,12.8,0001.1,0009.94,0007.25,0006.93
2023-01-22 02:54:00,,0823.4,5.00,0.00,21.3,19.8,00.0,30.1,22.9,12.9,0000.0,0010.02,0007.29,0006.96
2023-01-22 02:55:00,,0823.4,5.01,0.00,21.3,19.4,00.0,30.1,22.8,12.9,0000.4,0010.12,0007.34,0006.99
2023-01-22 02:56:00,,0823.3,4.99,0.00,21.2,19.2,00.0,30.1,22.7,13.0,0000.0,0010.19,0007.39,0007.04
2023-01-22 02:57:00,,0823.2,4.98,0.00,21.2,19.1,00.0,30.0,22.6,13.0,0000.0,0010.22,0007.43,0007.08
2023-01-22 02:58:00,,0823.2,5.00,0.00,21.1,19.0,00.0,30.0,22.5,13.0,0000.0,0010.33,0007.48,0007.11
2023-01-22 02:59:00,,0823.3,4.99,0.00,21.1,18.9,00.0,30.0,22.4,13.0,0000.0,0010.38,0007.52,0007.16
